User: anonymous   Login
Location: Ladysmith
(45.4630°N, 91.1040°W)
Time: 18:29:59
(UTC-06:00)
Language:

SO-67 - Orbit

View from above orbital plane
View from above orbital plane
View from above satellite
View from above satellite

Ground track
Ground track

The orbit data is extracted from the following two-line orbital elements,

1 35870U 09049F   14354.56094177  .00018706  00000-0  51779-3 0  8051
2 35870 097.1487 010.2343 0002984 110.2625 008.2782 15.37030660292634
Epoch (UTC): 20 December 2014 13:27:45
Eccentricity: 0.0002984
inclination: 97.1487°
perigee height: 453 km
apogee height: 457 km
right ascension of ascending node: 10.2343°
argument of perigee: 110.2625°
revolutions per day: 15.37030660
mean anomaly at epoch: 8.2782°
orbit number at epoch: 29263

The dashed part of the orbit path shows where the satellite is in the earth's shadow,  

DLR